This is the latest recevied weather packets stored in our database for station/object KN6ETB-1. If no packets are shown the sender has not sent any weather packets the latest 10 day(s).
| Time | Temp. | Humidity | Pressure | Rain* | Wind** | Luminosity | Snow |
|---|---|---|---|---|---|---|---|
| 1777606709 | 18.89° C | 61% | 1008.9 hPa | 0 mm | - | 0 W/m² | - |
| 1777606405 | 18.89° C | 62% | 1008.7 hPa | 0 mm | - | 0 W/m² | - |
| 1777606100 | 19.44° C | 62% | 1008.8 hPa | 0 mm | - | 0 W/m² | - |
| 1777605796 | 19.44° C | 62% | 1008.9 hPa | 0 mm | - | 0 W/m² | - |
| 1777605495 | 20° C | 62% | 1008.8 hPa | 0 mm | - | 0 W/m² | - |
| 1777605192 | 20° C | 61% | 1008.6 hPa | 0 mm | - | 0 W/m² | - |
| 1777604888 | 20° C | 61% | 1008.6 hPa | 0 mm | - | 0 W/m² | - |
| 1777604583 | 20° C | 62% | 1008.6 hPa | 0 mm | - | 0 W/m² | - |
| 1777604280 | 20.56° C | 61% | 1008.6 hPa | 0 mm | - | 2 W/m² | - |
| 1777603975 | 20.56° C | 61% | 1008.4 hPa | 0 mm | - | 5 W/m² | - |
| 1777603672 | 21.11° C | 60% | 1008.5 hPa | 0 mm | - | 7 W/m² | - |
| 1777603369 | 21.67° C | 60% | 1008.7 hPa | 0 mm | - | 11 W/m² | - |
| 1777603065 | 21.67° C | 58% | 1008.8 hPa | 0 mm | - | 15 W/m² | - |
| 1777602759 | 22.22° C | 56% | 1008.6 hPa | 0 mm | - | 19 W/m² | - |
| 1777602455 | 22.78° C | 56% | 1008.5 hPa | 0 mm | - | 23 W/m² | - |
| 1777602151 | 22.78° C | 55% | 1008.5 hPa | 0 mm | - | 26 W/m² | - |
| 1777601846 | 22.78° C | 55% | 1008.6 hPa | 0 mm | - | 31 W/m² | - |
| 1777601542 | 23.33° C | 54% | 1008.7 hPa | 0 mm | - | 35 W/m² | - |
| 1777601237 | 23.89° C | 53% | 1008.5 hPa | 0 mm | - | 41 W/m² | - |
| 1777600935 | 25° C | 49% | 1008.6 hPa | 0 mm | - | 45 W/m² | - |
| 1777600631 | 25° C | 48% | 1008.6 hPa | 0 mm | - | 55 W/m² | - |
| 1777600327 | 25.56° C | 48% | 1008.7 hPa | 0 mm | - | 67 W/m² | - |
| 1777600023 | 26.11° C | 46% | 1008.6 hPa | 0 mm | - | 76 W/m² | - |
| 1777599719 | 26.67° C | 45% | 1008.7 hPa | 0 mm | - | 82 W/m² | - |
| 1777599415 | 27.22° C | 47% | 1008.7 hPa | 0 mm | - | 93 W/m² | - |
* Rain latest hour (hover to see other rain measurements)
** Current wind speed in m/s (hover to see current wind gust speed)